COSMOS 2460 (732)

Last updated on Thu Oct 30 2025 00:03:21 GMT+0000 (Coordinated Universal Time)

1 36402U 10007C 25302.24137797 -.00000009 00000+0 00000+0 0 9993 2 36402 65.5531 322.2771 0002967 249.8036 80.1457 2.13106243121801
UTC large
Height (km)
Speed (km/s)
/
Latitude / Longitude
Inclination (degrees)
Orbital Period (minutes)
Azimuth
Elevation
Range (km)
Doppler Factor

Next 0 passes for location: London (51.5072 / 0.1276)

Sorry there are no passes over London.